TimeCDT,TemperatureF,Dew PointF,Humidity,Sea Level PressureIn,VisibilityMPH,Wind Direction,Wind SpeedMPH,Gust SpeedMPH,PrecipitationIn,Events,Conditions,WindDirDegrees,DateUTC
12:58 AM,81.5,76.6,85,29.99,10.0,WSW,4.6,-,N/A,,Clear,240,2013-07-11 05:58:00
1:58 AM,80.6,76.8,88,30.00,10.0,WSW,5.8,-,N/A,,Clear,250,2013-07-11 06:58:00
2:58 AM,79.9,76.5,89,30.00,10.0,Calm,Calm,-,N/A,,Partly Cloudy,0,2013-07-11 07:58:00
3:58 AM,78.8,75.7,90,29.99,10.0,Calm,Calm,-,N/A,,Scattered Clouds,0,2013-07-11 08:58:00
4:58 AM,79.0,76.3,91,29.97,10.0,Variable,1.2,-,N/A,,Partly Cloudy,0,2013-07-11 09:58:00
5:58 AM,78.3,75.9,92,29.97,10.0,West,3.5,-,N/A,,Clear,280,2013-07-11 10:58:00
6:58 AM,79.2,76.3,91,29.98,10.0,Variable,4.6,-,N/A,,Mostly Cloudy,0,2013-07-11 11:58:00
7:58 AM,79.2,75.6,89,29.99,10.0,Variable,3.5,-,N/A,,Scattered Clouds,0,2013-07-11 12:58:00
8:58 AM,81.5,75.9,83,29.99,10.0,Variable,5.8,-,N/A,,Partly Cloudy,0,2013-07-11 13:58:00
9:58 AM,82.2,76.1,82,29.99,10.0,West,3.5,-,N/A,,Mostly Cloudy,270,2013-07-11 14:58:00
10:15 AM,82.4,75.2,79,29.98,9.0,NNW,1.2,-,N/A,Rain,Light Rain,340,2013-07-11 15:15:00
10:28 AM,80.6,77.0,89,29.98,10.0,Variable,1.2,-,N/A,,Overcast,0,2013-07-11 15:28:00
10:58 AM,81.9,75.7,82,30.00,10.0,SW,11.5,-,0.00,,Mostly Cloudy,230,2013-07-11 15:58:00
11:08 AM,78.8,73.4,83,29.98,10.0,SW,17.3,20.7,N/A,,Overcast,220,2013-07-11 16:08:00
11:23 AM,78.8,73.4,83,29.97,10.0,SW,16.1,-,N/A,Thunderstorm,Overcast,230,2013-07-11 16:23:00
11:28 AM,78.8,73.4,83,29.97,10.0,SW,12.7,-,N/A,Thunderstorm,Overcast,230,2013-07-11 16:28:00
11:38 AM,80.6,73.4,79,29.97,10.0,SW,12.7,-,N/A,Thunderstorm,Mostly Cloudy,230,2013-07-11 16:38:00
11:48 AM,80.6,73.4,79,29.97,10.0,SW,13.8,-,N/A,,Mostly Cloudy,230,2013-07-11 16:48:00
11:53 AM,80.6,73.4,79,29.97,10.0,SW,16.1,-,N/A,,Mostly Cloudy,230,2013-07-11 16:53:00
11:58 AM,80.2,73.9,81,29.98,10.0,SW,15.0,-,N/A,,Mostly Cloudy,230,2013-07-11 16:58:00
12:08 PM,80.6,73.4,79,29.96,10.0,SW,17.3,-,N/A,Thunderstorm,Scattered Clouds,220,2013-07-11 17:08:00
12:14 PM,80.6,73.4,79,29.97,10.0,SW,13.8,-,N/A,Thunderstorm,Thunderstorm,220,2013-07-11 17:14:00
12:20 PM,80.6,73.4,79,29.96,10.0,NNW,18.4,36.8,N/A,Thunderstorm,Thunderstorm,340,2013-07-11 17:20:00
12:21 PM,80.6,73.4,79,29.99,10.0,NNE,26.5,36.8,N/A,Thunderstorm,Thunderstorm,30,2013-07-11 17:21:00
12:24 PM,78.8,71.6,78,30.01,2.5,NE,25.3,36.8,N/A,Rain-Thunderstorm,Thunderstorms and Rain,40,2013-07-11 17:24:00
12:29 PM,75.2,71.6,89,30.02,0.5,ENE,16.1,36.8,N/A,Fog-Rain-Thunderstorm,Heavy Thunderstorms and Rain,60,2013-07-11 17:29:00
12:34 PM,75.2,71.6,89,30.02,0.5,ENE,9.2,-,N/A,Fog-Rain-Thunderstorm,Heavy Thunderstorms and Rain,60,2013-07-11 17:34:00
12:39 PM,73.4,71.6,94,30.02,0.5,NE,6.9,-,N/A,Fog-Rain-Thunderstorm,Heavy Thunderstorms and Rain,50,2013-07-11 17:39:00
12:44 PM,73.4,71.6,94,30.02,0.8,NE,6.9,-,N/A,Rain-Thunderstorm,Heavy Thunderstorms and Rain,40,2013-07-11 17:44:00
12:49 PM,73.4,71.6,94,30.01,1.8,NNE,8.1,-,N/A,Rain-Thunderstorm,Thunderstorms and Rain,30,2013-07-11 17:49:00
12:54 PM,73.4,71.6,94,30.01,5.0,NNE,4.6,-,N/A,Rain-Thunderstorm,Light Thunderstorms and Rain,30,2013-07-11 17:54:00
12:58 PM,73.6,71.4,93,30.03,8.0,NE,5.8,-,0.64,Rain-Thunderstorm,Light Thunderstorms and Rain,40,2013-07-11 17:58:00
1:03 PM,73.4,71.6,94,30.02,8.0,NE,6.9,-,N/A,Rain-Thunderstorm,Light Thunderstorms and Rain,50,2013-07-11 18:03:00
1:18 PM,73.4,71.6,94,30.02,6.0,NE,8.1,-,N/A,Rain-Thunderstorm,Thunderstorms and Rain,40,2013-07-11 18:18:00
1:23 PM,73.4,71.6,94,30.01,6.0,NNE,8.1,-,N/A,Rain-Thunderstorm,Thunderstorms and Rain,30,2013-07-11 18:23:00
1:24 PM,73.4,71.6,94,30.01,6.0,NNE,6.9,-,N/A,Rain-Thunderstorm,Rain,30,2013-07-11 18:24:00
1:29 PM,73.4,69.8,88,30.01,6.0,NNE,6.9,-,N/A,Rain-Thunderstorm,Rain,30,2013-07-11 18:29:00
1:44 PM,73.4,71.6,94,30.01,10.0,Variable,2.3,-,N/A,,Overcast,0,2013-07-11 18:44:00
1:48 PM,73.4,71.6,94,30.01,10.0,Variable,3.5,-,N/A,Rain,Light Rain,0,2013-07-11 18:48:00
1:58 PM,73.0,71.1,93,30.01,9.0,NNE,4.6,-,0.11,Rain,Light Rain,30,2013-07-11 18:58:00
2:32 PM,73.4,71.6,94,29.99,10.0,Variable,2.3,-,N/A,,Mostly Cloudy,0,2013-07-11 19:32:00
2:34 PM,73.4,71.6,94,29.99,10.0,Variable,3.5,-,N/A,Rain,Light Rain,0,2013-07-11 19:34:00
2:58 PM,73.4,71.6,94,29.99,10.0,NNW,3.5,-,0.02,Rain,Light Rain,330,2013-07-11 19:58:00
3:49 PM,75.2,73.4,94,29.93,10.0,Variable,3.5,-,N/A,,Clear,0,2013-07-11 20:49:00
3:58 PM,74.5,72.9,95,29.93,10.0,Variable,4.6,-,0.03,,Clear,0,2013-07-11 20:58:00
4:58 PM,74.8,72.7,93,29.92,10.0,Variable,4.6,-,N/A,,Partly Cloudy,0,2013-07-11 21:58:00
5:58 PM,76.6,72.9,88,29.89,10.0,Variable,1.2,-,N/A,,Clear,0,2013-07-11 22:58:00
6:58 PM,77.5,72.7,85,29.91,10.0,Variable,1.2,-,N/A,,Clear,0,2013-07-11 23:58:00
7:58 PM,75.2,72.5,91,29.92,10.0,Calm,Calm,-,N/A,,Clear,0,2013-07-12 00:58:00
8:38 PM,75.2,71.6,89,29.93,10.0,Calm,Calm,-,N/A,,Mostly Cloudy,0,2013-07-12 01:38:00
8:53 PM,75.2,71.6,89,29.93,10.0,Calm,Calm,-,N/A,,Scattered Clouds,0,2013-07-12 01:53:00
8:58 PM,74.7,72.3,92,29.94,10.0,Calm,Calm,-,N/A,,Scattered Clouds,0,2013-07-12 01:58:00
9:58 PM,74.8,72.5,92,29.95,10.0,Calm,Calm,-,N/A,,Clear,0,2013-07-12 02:58:00
10:58 PM,74.5,72.0,92,29.95,10.0,Calm,Calm,-,N/A,,Clear,0,2013-07-12 03:58:00
11:58 PM,74.1,72.1,94,29.95,10.0,Calm,Calm,-,N/A,,Clear,0,2013-07-12 04:58:00